• Em Portugal
  • Lista de países
  • Para 7 dias
  • Temperatura da água
  • Mapas de satélite
  • Mapa do tempo
  • Widgets de tempo
  • user-avatar
    Iniciar Sessão

    Previsão horária em Gobabis

    Hoje, 19 Fevereiro, Segunda-feira

    Tempo Temperatura Precipitação Vento Pressão Humidade
    00:00 +25°C° 0 mm 5 m/s 639 mmHg 17%
    01:00 +23°C° 0 mm 5 m/s 639 mmHg 17%
    02:00 +22°C° 0 mm 5 m/s 639 mmHg 17%
    03:00 +22°C° 0 mm 4 m/s 639 mmHg 18%
    04:00 +21°C° 0 mm 4 m/s 639 mmHg 19%
    05:00 +21°C° 0 mm 4 m/s 639 mmHg 19%
    06:00 +22°C° 0 mm 5 m/s 640 mmHg 19%
    07:00 +23°C° 0 mm 5 m/s 640 mmHg 19%
    08:00 +26°C° 0 mm 5 m/s 641 mmHg 17%
    09:00 +28°C° 0 mm 4 m/s 641 mmHg 15%
    10:00 +32°C° 0 mm 4 m/s 642 mmHg 13%
    11:00 +33°C° 0 mm 3 m/s 642 mmHg 13%
    12:00 +34°C° 0 mm 2 m/s 641 mmHg 13%
    13:00 +34°C° 0 mm 1 m/s 641 mmHg 13%
    14:00 +34°C° 0 mm 1 m/s 641 mmHg 13%
    15:00 +36°C° 0 mm 2 m/s 641 mmHg 12%
    16:00 +36°C° 0 mm 2 m/s 640 mmHg 11%
    17:00 +35°C° 0 mm 3 m/s 640 mmHg 12%
    18:00 +33°C° 0 mm 3 m/s 640 mmHg 13%
    19:00 +31°C° 0 mm 3 m/s 640 mmHg 14%
    20:00 +30°C° 0 mm 3 m/s 640 mmHg 15%
    21:00 +29°C° 0 mm 3 m/s 641 mmHg 16%
    22:00 +29°C° 0 mm 3 m/s 641 mmHg 17%
    23:00 +28°C° 0 mm 3 m/s 641 mmHg 19%

    Amanhã, 20 Fevereiro, Terça-feira

    Tempo Temperatura Precipitação Vento Pressão Humidade
    00:00 +27°C° 0 mm 3 m/s 640 mmHg 22%
    01:00 +26°C° 0 mm 3 m/s 640 mmHg 24%
    02:00 +26°C° 0 mm 3 m/s 640 mmHg 24%
    03:00 +26°C° 0 mm 3 m/s 640 mmHg 24%
    04:00 +25°C° 0 mm 3 m/s 640 mmHg 24%
    05:00 +26°C° 0 mm 3 m/s 640 mmHg 24%
    06:00 +26°C° 0 mm 3 m/s 641 mmHg 24%
    07:00 +26°C° 0 mm 3 m/s 641 mmHg 25%
    08:00 +28°C° 0 mm 3 m/s 641 mmHg 25%
    09:00 +30°C° 0 mm 3 m/s 642 mmHg 25%
    10:00 +33°C° 0 mm 3 m/s 642 mmHg 24%
    11:00 +34°C° 0 mm 3 m/s 642 mmHg 23%
    12:00 +35°C° 0 mm 3 m/s 641 mmHg 21%
    13:00 +35°C° 0 mm 3 m/s 641 mmHg 19%
    14:00 +35°C° 0 mm 3 m/s 640 mmHg 20%
    15:00 +35°C° 0 mm 3 m/s 640 mmHg 20%
    16:00 +34°C° 0 mm 4 m/s 639 mmHg 20%
    17:00 +33°C° 0 mm 3 m/s 639 mmHg 23%
    18:00 +31°C° 0 mm 3 m/s 639 mmHg 25%
    19:00 +30°C° 0 mm 3 m/s 639 mmHg 27%
    20:00 +29°C° 0 mm 3 m/s 639 mmHg 29%
    21:00 +28°C° 0 mm 2 m/s 640 mmHg 32%
    22:00 +27°C° 0 mm 2 m/s 640 mmHg 35%
    23:00 +27°C° 0 mm 2 m/s 639 mmHg 37%

    Depois de amanhã, 21 Fevereiro, Quarta-feira

    Tempo Temperatura Precipitação Vento Pressão Humidade
    00:00 +26°C° 0 mm 2 m/s 639 mmHg 40%
    01:00 +25°C° 0 mm 2 m/s 638 mmHg 42%
    02:00 +25°C° 0 mm 2 m/s 638 mmHg 43%
    03:00 +25°C° 0 mm 2 m/s 638 mmHg 43%
    04:00 +25°C° 0 mm 2 m/s 638 mmHg 44%
    05:00 +25°C° 0 mm 1 m/s 639 mmHg 41%
    06:00 +26°C° 0 mm 1 m/s 640 mmHg 39%
    07:00 +27°C° 0 mm 1 m/s 640 mmHg 37%
    08:00 +29°C° 0 mm 2 m/s 641 mmHg 33%
    09:00 +32°C° 0 mm 4 m/s 641 mmHg 30%
    10:00 +34°C° 0 mm 5 m/s 641 mmHg 26%
    11:00 +34°C° 0 mm 5 m/s 641 mmHg 25%
    12:00 +34°C° 0 mm 5 m/s 640 mmHg 24%
    13:00 +35°C° 0 mm 6 m/s 640 mmHg 23%
    14:00 +34°C° 0 mm 5 m/s 639 mmHg 24%
    15:00 +34°C° 0 mm 5 m/s 639 mmHg 25%
    16:00 +34°C° 0 mm 5 m/s 638 mmHg 25%
    17:00 +33°C° 0,2 mm 4 m/s 638 mmHg 29%
    18:00 +30°C° 0,2 mm 4 m/s 638 mmHg 33%
    19:00 +29°C° 0,2 mm 3 m/s 638 mmHg 37%
    20:00 +28°C° 0,1 mm 3 m/s 638 mmHg 41%
    21:00 +27°C° 0,1 mm 3 m/s 638 mmHg 45%
    22:00 +26°C° 0,1 mm 3 m/s 638 mmHg 50%
    23:00 +25°C° 0,1 mm 3 m/s 638 mmHg 52%

    22 Fevereiro, Quinta-feira

    Tempo Temperatura Precipitação Vento Pressão Humidade
    00:00 +25°C° 0,1 mm 2 m/s 637 mmHg 54%
    01:00 +24°C° 0,1 mm 2 m/s 637 mmHg 56%
    02:00 +24°C° 0,2 mm 2 m/s 637 mmHg 59%
    03:00 +23°C° 0,2 mm 2 m/s 637 mmHg 62%
    04:00 +21°C° 0,2 mm 2 m/s 636 mmHg 65%
    05:00 +23°C° 0,1 mm 2 m/s 637 mmHg 62%
    06:00 +24°C° 0,1 mm 2 m/s 638 mmHg 60%
    07:00 +25°C° 0,1 mm 2 m/s 638 mmHg 57%
    08:00 +27°C° 0 mm 2 m/s 639 mmHg 49%
    09:00 +29°C° 0 mm 3 m/s 639 mmHg 42%
    10:00 +30°C° 0 mm 3 m/s 640 mmHg 35%
    11:00 +33°C° 0 mm 4 m/s 639 mmHg 31%
    12:00 +34°C° 0 mm 5 m/s 639 mmHg 27%
    13:00 +36°C° 0 mm 7 m/s 638 mmHg 23%
    14:00 +35°C° 0 mm 7 m/s 638 mmHg 24%
    15:00 +34°C° 0 mm 7 m/s 637 mmHg 26%
    16:00 +33°C° 0 mm 6 m/s 637 mmHg 27%
    17:00 +32°C° 0 mm 6 m/s 637 mmHg 29%
    18:00 +30°C° 0 mm 6 m/s 637 mmHg 30%
    19:00 +30°C° 0 mm 6 m/s 638 mmHg 32%
    20:00 +28°C° 0,1 mm 6 m/s 638 mmHg 40%
    21:00 +27°C° 0,1 mm 7 m/s 638 mmHg 48%
    22:00 +24°C° 0,1 mm 7 m/s 638 mmHg 56%
    23:00 +23°C° 0 mm 7 m/s 637 mmHg 60%

    23 Fevereiro, Sexta-feira

    Tempo Temperatura Precipitação Vento Pressão Humidade
    00:00 +22°C° 0 mm 6 m/s 637 mmHg 63%
    01:00 +21°C° 0 mm 5 m/s 637 mmHg 66%
    02:00 +20°C° 0 mm 5 m/s 636 mmHg 70%
    03:00 +19°C° 0 mm 4 m/s 636 mmHg 73%
    04:00 +18°C° 0 mm 3 m/s 636 mmHg 77%
    05:00 +19°C° 0 mm 2 m/s 636 mmHg 75%
    06:00 +19°C° 0 mm 2 m/s 637 mmHg 74%
    07:00 +20°C° 0 mm 1 m/s 637 mmHg 73%
    08:00 +23°C° 0 mm 2 m/s 638 mmHg 61%
    09:00 +25°C° 0 mm 4 m/s 638 mmHg 49%
    10:00 +28°C° 0 mm 5 m/s 639 mmHg 37%
    11:00 +30°C° 0 mm 6 m/s 639 mmHg 32%
    12:00 +33°C° 0 mm 7 m/s 638 mmHg 27%
    13:00 +34°C° 0 mm 9 m/s 638 mmHg 22%
    14:00 +34°C° 0 mm 9 m/s 638 mmHg 21%
    15:00 +34°C° 0 mm 9 m/s 638 mmHg 21%
    16:00 +34°C° 0 mm 9 m/s 637 mmHg 21%
    17:00 +33°C° 0 mm 8 m/s 637 mmHg 25%
    18:00 +30°C° 0 mm 6 m/s 637 mmHg 29%
    19:00 +28°C° 0 mm 5 m/s 637 mmHg 33%
    20:00 +27°C° 0 mm 5 m/s 637 mmHg 41%
    21:00 +26°C° 0 mm 6 m/s 637 mmHg 49%
    22:00 +23°C° 0 mm 6 m/s 638 mmHg 56%
    23:00 +22°C° 0 mm 5 m/s 637 mmHg 62%

    24 Fevereiro, Sábado

    Tempo Temperatura Precipitação Vento Pressão Humidade
    00:00 +21°C° 0 mm 4 m/s 637 mmHg 68%
    01:00 +20°C° 0 mm 4 m/s 636 mmHg 74%
    02:00 +20°C° 0 mm 3 m/s 636 mmHg 78%
    03:00 +19°C° 0 mm 3 m/s 636 mmHg 81%
    04:00 +18°C° 0 mm 2 m/s 636 mmHg 85%
    05:00 +19°C° 0 mm 2 m/s 636 mmHg 81%
    06:00 +20°C° 0 mm 2 m/s 637 mmHg 77%
    07:00 +20°C° 0 mm 2 m/s 637 mmHg 74%
    08:00 +24°C° 0 mm 3 m/s 638 mmHg 63%
    09:00 +26°C° 0 mm 4 m/s 638 mmHg 51%
    10:00 +29°C° 0 mm 5 m/s 639 mmHg 40%
    11:00 +30°C° 0 mm 6 m/s 638 mmHg 34%
    12:00 +33°C° 0 mm 7 m/s 638 mmHg 28%
    13:00 +35°C° 0 mm 8 m/s 638 mmHg 21%
    14:00 +35°C° 0 mm 8 m/s 638 mmHg 20%
    15:00 +35°C° 0 mm 8 m/s 637 mmHg 19%
    16:00 +35°C° 0 mm 9 m/s 637 mmHg 19%
    17:00 +34°C° 0 mm 8 m/s 637 mmHg 21%
    18:00 +33°C° 0 mm 7 m/s 637 mmHg 24%
    19:00 +30°C° 0 mm 6 m/s 637 mmHg 26%
    20:00 +29°C° 0 mm 6 m/s 637 mmHg 33%
    21:00 +28°C° 0 mm 6 m/s 637 mmHg 40%
    22:00 +26°C° 0 mm 5 m/s 638 mmHg 46%
    23:00 +26°C° 0 mm 5 m/s 637 mmHg 45%
    Mostrar mais